Location: Newark
(45.8667°N, 9.7333°E)
Time: 01:49:03
(UTC+00:00)

Tiros 1 - All Passes

Search period start: 26 January 2020 00:00
Search period end: 05 February 2020 00:00
Orbit: 630 x 664 km, 48.4° (Epoch: 25 January)

Date Brightness Start Highest point End Pass type
(mag) Time Alt. Az. Time Alt. Az. Time Alt. Az.
26 Jan - 11:25:04 10° SSW 11:29:21 37° SE 11:33:42 10° ENE daylight
26 Jan - 13:06:39 10° WSW 13:11:21 81° NNW 13:16:08 10° ENE daylight
26 Jan - 14:49:07 10° WNW 14:53:50 65° N 14:58:36 10° E daylight
26 Jan - 16:31:25 10° WNW 16:36:11 71° SSW 16:40:57 10° ESE daylight
26 Jan - 18:14:18 10° W 18:17:51 21° SW 18:21:25 10° S visible
27 Jan - 10:10:30 10° S 10:13:40 18° SE 10:16:50 10° E daylight
27 Jan - 11:50:36 10° SW 11:55:14 66° SSE 11:59:56 10° ENE daylight
27 Jan - 13:32:50 10° W 13:37:32 66° N 13:42:17 10° ENE daylight
27 Jan - 15:15:16 10° WNW 15:20:01 78° NNE 15:24:50 10° E daylight
27 Jan - 16:57:37 10° WNW 17:02:06 41° SSW 17:06:36 10° SE visible
28 Jan - 10:35:07 10° SSW 10:39:19 35° SE 10:43:36 10° E daylight
28 Jan - 12:16:36 10° WSW 12:21:17 84° NNW 12:26:04 10° ENE daylight
28 Jan - 13:59:04 10° WNW 14:03:45 64° N 14:08:30 10° E daylight
28 Jan - 15:41:23 10° WNW 15:46:07 74° SSW 15:50:53 10° ESE daylight
28 Jan - 17:24:09 10° W 17:27:50 22° SW 17:31:31 10° S visible
29 Jan - 09:20:43 10° S 09:23:40 17° SE 09:26:38 10° E daylight
29 Jan - 11:00:36 10° SW 11:05:12 62° SSE 11:09:52 10° ENE daylight
29 Jan - 12:42:47 10° W 12:47:28 67° N 12:52:12 10° ENE daylight
29 Jan - 14:25:13 10° WNW 14:29:57 76° NNE 14:34:45 10° E daylight
29 Jan - 16:07:32 10° WNW 16:12:03 44° SSW 16:16:36 10° SE daylight
29 Jan - 17:52:29 10° WSW 17:53:23 10° SW 17:54:16 10° SW visible
30 Jan - 09:45:11 10° SSW 09:49:19 32° SE 09:53:30 10° E daylight
30 Jan - 11:26:33 10° WSW 11:31:14 86° NNW 11:35:58 10° ENE daylight
30 Jan - 13:09:00 10° W 13:13:41 64° N 13:18:25 10° E daylight
30 Jan - 14:51:19 10° WNW 14:56:04 78° SSW 15:00:50 10° ESE daylight
30 Jan - 16:34:01 10° W 16:37:49 24° SW 16:41:37 10° SSE daylight
31 Jan - 08:30:57 10° S 08:33:40 15° SE 08:36:24 10° E daylight
31 Jan - 10:10:36 10° SW 10:15:09 59° SSE 10:19:47 10° ENE daylight
31 Jan - 11:52:43 10° W 11:57:23 68° N 12:02:07 10° ENE daylight
31 Jan - 13:35:10 10° WNW 13:39:53 74° NNE 13:44:39 10° E daylight
31 Jan - 15:17:28 10° WNW 15:22:01 47° SSW 15:26:35 10° SE daylight
31 Jan - 17:01:50 10° WSW 17:03:23 11° SW 17:04:56 10° SSW visible
01 Feb - 08:55:15 10° SSW 08:59:18 30° SE 09:03:23 10° E daylight
01 Feb - 10:36:31 10° WSW 10:41:11 89° N 10:45:54 10° ENE daylight
01 Feb - 12:18:57 10° W 12:23:37 63° N 12:28:20 10° E daylight
01 Feb - 14:01:16 10° WNW 14:06:01 81° SSW 14:10:46 10° ESE daylight
01 Feb - 15:43:54 10° W 15:47:48 25° SW 15:51:42 10° SSE daylight
02 Feb - 07:41:14 10° SSE 07:43:40 14° SE 07:46:07 10° ESE daylight
02 Feb - 09:20:36 10° SW 09:25:07 55° SSE 09:29:42 10° ENE daylight
02 Feb - 11:02:40 10° W 11:07:19 69° N 11:12:02 10° ENE daylight
02 Feb - 12:45:07 10° WNW 12:49:49 72° NNE 12:54:34 10° E daylight
02 Feb - 14:27:25 10° WNW 14:31:58 49° SSW 14:36:34 10° SE daylight
02 Feb - 16:11:24 10° WSW 16:13:23 12° SW 16:15:22 10° SSW daylight
03 Feb - 08:05:20 10° SSW 08:09:17 28° SE 08:13:16 10° E daylight
03 Feb - 09:46:28 10° WSW 09:51:07 88° SSE 09:55:50 10° ENE daylight
03 Feb - 11:28:54 10° W 11:33:33 63° N 11:38:14 10° E daylight
03 Feb - 13:11:13 10° WNW 13:15:57 84° SSW 13:20:42 10° ESE daylight
03 Feb - 14:53:48 10° W 14:57:46 27° SW 15:01:46 10° SSE daylight
04 Feb - 06:51:35 10° SSE 06:53:41 13° SE 06:55:48 10° ESE daylight
04 Feb - 08:30:36 10° SW 08:35:05 52° SSE 08:39:38 10° ENE daylight
04 Feb - 10:12:36 10° W 10:17:15 70° N 10:21:57 10° ENE daylight
04 Feb - 11:55:04 10° WNW 11:59:45 70° N 12:04:29 10° E daylight
04 Feb - 13:37:21 10° WNW 13:41:56 52° SSW 13:46:33 10° SE daylight
04 Feb - 15:21:04 10° WSW 15:23:23 14° SW 15:25:42 10° SSW daylight
